Flag for U.S.A. Weather past 2 weeks in Sevierville, Tennessee, U.S.A.

Now
59 °F

Passing clouds.


Feels Like: 57 °F
Forecast: 24 / 60 °F
Wind: 13 mph from Southwest

Location: McGhee Tyson Airport

Current Time: Mar 29, 2015 at 6:25:06 PM

Latest Report: Mar 29, 2015 at 5:53 PM


Visibility: 10 mi

Pressure: 30.16 "Hg

Humidity: 20%

Dew point: 18 °F

Location of SeviervilleLocation

Historic Weather in Sevierville — Graph

°F

Sevierville temperature yesterday

Maximum temperature yesterday: 46 °F (at 4:53 PM)
Minimum temperature yesterday: 31 °F (at 7:53 AM)
Average temperature yesterday: 38 °F

Past Weeks' High & Low Weather Summary

 TemperatureHumidityPressure
High77 °F (Mar 25, 3:53 PM)100% (Mar 14, 7:53 PM)30.40 "Hg (Mar 14, 7:53 PM)
Low26 °F (Mar 29, 5:53 AM)19% (Mar 29, 3:53 PM)29.67 "Hg (Mar 26, 5:53 PM)
Average54 °F65%30.07 "Hg
* Reported Mar 14 4:53 PM — Mar 29 4:53 PM, Sevierville, Weather by CustomWeather, © 2015

Note: Actual official high and low records may vary slightly from our data, if they occured in-between our weather recording intervals... More about our weather records

Advertising

Sevierville weather history for previous 24 hours

 ConditionsComfort  
Time TempWeatherWind HumidityBarometerVisibility
4:53 PM
Sun, Mar 29
59 °FPassing clouds.10 mph19%30.19 "Hg10 mi
3:53 PM56 °FSunny.12 mph19%30.24 "Hg10 mi
2:53 PM54 °FPassing clouds.8 mph20%30.27 "Hg10 mi
1:53 PM51 °FPassing clouds.14 mph25%30.32 "Hg10 mi
11:53 AM42 °FSunny.No wind32%30.39 "Hg10 mi
10:53 AM40 °FPassing clouds.3 mph43%30.40 "Hg10 mi
9:53 AM35 °FPassing clouds.3 mph56%30.40 "Hg10 mi
8:53 AM28 °FPassing clouds.5 mph75%30.40 "Hg10 mi
7:53 AM26 °FClear.3 mph71%30.39 "Hg10 mi
6:53 AM27 °FClear.5 mph61%30.37 "Hg10 mi
5:53 AM26 °FClear.No wind77%30.36 "Hg10 mi
4:53 AM28 °FClear.5 mph64%30.35 "Hg10 mi
3:53 AM28 °FClear.6 mph58%30.35 "Hg10 mi
2:53 AM31 °FClear.6 mph49%30.35 "Hg10 mi
1:53 AM32 °FClear.3 mph50%30.34 "Hg10 mi
12:53 AM33 °FClear.No wind52%30.34 "Hg10 mi
11:53 PM
Sat, Mar 28
35 °FClear.7 mph40%30.33 "Hg10 mi
10:53 PM37 °FClear.7 mph36%30.30 "Hg10 mi
9:53 PM38 °FClear.8 mph36%30.28 "Hg10 mi
8:53 PM40 °FSunny.8 mph29%30.25 "Hg10 mi
7:53 PM42 °FSunny.10 mph27%30.22 "Hg10 mi
6:53 PM45 °FPassing clouds.5 mph20%30.20 "Hg10 mi
Weather by CustomWeather, © 2015

See weather overviewHow to use our weather pages